Theta_e
324 325 322 323 322 321 320 319 319 319 319 319 319 320 320 319 319 319 320 320 320 319 320 319 319 319 319 319 319 318 317 317 317 317 316 315 315 315
325 324 324 323 322 320 320 320 321 322 321 321 320 319 318 320 320 320 319 318 318 318 318 317 317 317 317 318 317 317 317 316 315 316 315 315 315 315
325 323 324 323 321 320 322 322 322 321 320 319 321 320 318 318 317 318 316 315 316 317 318 318 317 317 316 316 316 316 316 317 317 317 316 317 316 316
323 324 324 323 322 321 322 322 321 317 320 321 319 320 319 318 318 317 317 318 319 318 318 318 316 315 315 316 316 318 318 318 317 317 317 317 317 317
323 324 324 323 321 321 321 320 320 320 318 316 316 316 315 315 316 317 316 317 314 314 314 315 317 318 318 319 319 319 319 319 318 318 318 318 318 318
323 323 323 323 320 321 321 318 321 319 318 317 316 316 316 315 316 316 316 317 318 318 318 318 318 318 317 317 318 318 318 317 317 317 316 314 313 313
321 322 322 322 321 321 321 318 318 318 317 317 317 316 316 313 313 316 317 318 317 316 316 316 315 313 314 312 313 313 313 312 310 310 310 309 307 305
320 320 320 320 320 320 319 319 318 316 315 314 314 314 313 313 317 317 317 316 313 312 312 311 310 310 309 308 307 306 305 304 301 301 300 298 296 295
318 318 318 318 317 317 316 316 316 316 316 316 316 316 316 317 316 316 315 313 312 310 307 308 307 305 304 302 300 298 297 296 295 293 293 293 293 293
318 317 317 317 317 317 317 317 316 316 316 316 315 314 314 313 312 312 310 310 309 308 304 302 301 300 298 296 294 293 293 292 291 291 291 290 290 290
316 316 315 316 315 314 313 313 314 312 311 312 311 309 308 308 307 306 302 302 300 299 297 296 295 294 293 291 290 289 288 287 287 286 285 283 283 283
308 309 307 307 305 305 306 307 307 306 303 302 301 302 300 301 298 297 296 295 295 294 292 293 293 292 290 289 288 287 285 285 284 283 282 281 281 281
300 297 298 299 299 299 300 300 302 300 299 299 296 294 293 294 293 293 293 293 292 291 289 287 285 284 283 283 283 282 283 283 282 281 280 280 280 280
297 295 294 294 296 298 297 297 297 296 293 293 292 292 292 292 291 289 287 286 284 284 283 282 282 282 281 281 280 281 280 279 279 279 279 279 279 278
294 293 294 293 293 292 294 291 291 291 291 290 290 289 286 284 283 282 282 282 282 281 281 281 280 280 279 279 279 278 279 279 279 278 278 277 277 277
292 291 290 291 290 289 288 287 287 286 285 283 282 282 281 281 281 280 280 281 281 280 280 279 279 279 278 277 277 277 277 277 277 276 276 276 276 276
290 290 290 288 285 283 282 281 281 280 280 280 280 279 280 280 280 280 279 279 279 278 278 278 277 277 276 276 276 275 275 274 274 274 275 275 275 275
285 285 283 281 280 279 279 279 279 278 278 278 278 278 278 278 278 278 278 277 277 276 276 275 275 276 276 275 274 274 274 274 273 274 274 273 274 275
281 280 279 279 279 278 278 278 278 278 277 277 277 277 277 276 276 276 276 276 275 275 274 274 274 274 273 273 274 273 273 273 273 273 273 273 273 275
279 279 278 278 278 277 277 277 277 277 276 276 275 275 275 275 275 275 275 274 274 274 273 273 273 272 272 271 271 272 272 272 272 272 272 272 273 274
277 277 277 276 276 276 276 275 275 275 275 274 274 274 274 274 273 273 273 272 272 272 272 272 271 271 270 271 271 271 272 271 271 271 271 271 272 274
276 275 275 274 274 274 274 274 273 273 273 273 273 273 273 272 272 272 272 271 271 270 270 270 270 270 270 270 270 270 271 271 272 272 272 271 270 269
274 274 274 273 273 273 273 273 273 272 272 272 272 272 271 271 270 270 270 270 270 270 270 270 270 270 269 269 269 269 269 270 271 273 274 273 273 274
Wind_Speed
43 47 49 46 38 34 35 34 29 26 34 33 33 36 29 24 23 22 18 14 14 15 17 19 21 23 24 26 27 26 25 27 30 35 36 37 38 37
47 40 41 47 36 35 33 33 26 21 19 22 23 22 27 26 22 21 22 18 21 22 24 24 24 25 27 28 28 29 31 35 40 36 34 33 35 40
40 37 41 50 44 32 26 31 30 23 22 23 23 20 17 18 21 19 19 22 26 29 27 26 24 28 31 34 34 37 41 41 42 41 44 46 48 47
31 39 41 48 49 33 30 27 26 25 20 28 19 16 16 15 16 20 19 22 22 22 24 30 35 38 37 36 38 38 39 39 41 43 45 45 44 45
30 43 46 44 43 32 31 31 22 22 19 16 19 24 21 21 23 25 26 29 33 36 38 36 33 31 30 29 30 32 33 35 35 34 35 36 40 42
21 30 40 42 44 39 33 31 29 26 26 29 29 30 29 28 29 32 32 27 25 25 25 26 28 28 27 29 30 31 31 30 29 33 33 32 31 34
20 29 29 36 38 38 38 32 32 33 28 28 29 27 30 32 31 29 22 21 24 24 24 22 21 19 20 21 22 24 27 27 29 30 31 32 31 30
13 17 20 21 21 27 29 29 26 25 27 26 26 28 31 29 27 25 24 22 21 20 18 19 18 19 20 19 20 21 21 21 18 20 19 17 15 16
16 17 17 18 18 20 23 22 25 26 25 25 26 27 27 27 27 23 22 20 21 20 17 18 20 18 18 15 14 14 14 12 12 12 12 14 15 17
17 17 17 17 19 21 21 22 24 26 27 29 31 31 29 24 21 19 19 18 19 18 15 13 14 12 11 7 7 7 8 9 11 13 14 15 16 18
19 19 19 19 20 21 19 18 17 16 15 16 17 15 14 14 13 13 10 10 10 9 8 8 6 5 5 7 8 8 9 11 14 16 17 17 17 18
18 18 16 15 14 14 14 14 13 12 10 9 9 9 8 7 6 5 5 4 4 5 5 6 6 5 4 8 8 12 14 14 16 18 18 20 21 25
19 18 17 16 16 14 12 12 11 10 8 7 7 8 8 7 5 3 3 3 4 5 5 5 6 7 7 7 11 13 14 15 17 18 20 22 24 26
19 21 20 13 12 11 10 10 11 11 11 10 8 7 5 4 3 2 3 3 3 3 3 4 6 7 9 11 9 11 14 18 20 22 24 25 25 28
18 17 16 11 8 12 14 11 10 10 7 6 5 4 3 1 1 1 1 2 2 3 5 8 8 9 11 12 14 16 19 19 21 19 24 27 27 26
12 12 12 10 7 7 10 9 8 7 6 4 3 2 2 3 2 2 2 2 4 5 8 11 12 14 13 12 12 14 16 18 24 25 27 27 28 25
7 7 8 8 9 9 9 8 7 6 4 4 3 2 0 1 2 2 3 4 6 8 10 11 12 13 14 14 14 14 17 19 20 24 27 30 30 28
4 6 9 9 8 8 7 6 6 5 4 2 1 2 2 4 4 6 6 6 5 6 8 11 14 14 13 11 9 14 16 19 22 25 28 33 35 30
4 7 7 6 6 5 5 4 3 3 3 3 3 3 4 5 6 7 7 7 7 7 9 13 14 15 16 15 13 10 18 21 26 30 29 30 33 33
5 5 4 4 3 3 3 3 3 4 4 6 6 5 5 6 7 8 9 10 9 9 10 11 13 13 15 17 18 19 19 23 26 30 31 32 33 32
3 2 2 2 3 4 4 5 5 5 6 7 7 7 7 7 8 9 9 9 9 10 11 11 12 14 14 14 15 18 18 17 19 22 27 33 35 36
1 2 2 2 3 3 5 7 7 8 8 8 8 7 8 8 8 9 10 9 9 10 11 12 13 12 12 13 16 20 23 23 18 18 18 19 24 29
4 4 5 5 6 7 6 7 7 8 7 7 6 6 6 7 9 9 10 10 11 11 12 12 11 11 11 13 15 19 22 23 26 23 18 19 18 20
Wind_Direction
222 223 215 214 210 210 210 217 217 206 219 224 228 231 233 239 243 243 248 255 260 260 263 267 271 268 268 268 268 269 274 277 281 277 278 277 274 272
211 228 224 214 198 199 207 221 217 219 210 218 222 223 225 226 230 233 236 238 254 259 262 256 262 266 261 264 267 271 275 277 275 273 269 272 269 267
221 215 223 215 200 195 210 211 215 216 213 216 218 208 215 228 238 241 259 275 265 258 257 251 261 273 275 269 265 265 270 267 270 267 264 269 269 269
215 217 222 209 201 196 205 196 203 215 198 182 179 191 205 197 224 242 249 261 261 259 255 259 266 269 268 265 263 265 266 266 266 268 272 275 277 276
217 213 211 203 189 193 198 207 207 211 219 220 237 229 246 259 257 250 255 255 266 267 267 268 266 263 263 267 268 271 274 275 276 274 274 276 278 279
226 213 202 206 198 207 211 210 221 234 245 250 252 251 242 250 256 254 262 254 252 257 262 262 262 266 269 275 272 276 278 276 276 274 274 278 281 283
178 191 192 202 204 216 220 219 229 242 243 245 246 245 249 259 264 258 251 255 251 249 247 249 251 257 266 271 275 275 275 278 281 283 285 286 288 290
194 187 190 199 200 210 212 226 231 234 238 240 243 247 249 251 252 249 248 236 237 234 241 247 253 264 271 274 276 279 282 285 291 291 292 295 295 295
204 204 204 206 204 209 213 225 230 232 237 241 244 246 248 251 248 238 236 237 240 246 255 260 265 268 274 279 283 284 289 295 295 300 307 305 302 301
207 208 210 214 212 221 227 230 231 234 238 239 238 243 246 237 237 237 240 244 244 249 256 252 258 274 281 280 273 278 291 298 306 307 303 302 299 295
204 205 210 212 216 221 217 219 213 201 201 216 215 213 220 230 233 238 234 230 238 242 244 247 255 282 292 291 295 315 312 315 313 310 312 308 306 307
173 181 189 191 184 178 195 195 187 175 171 172 173 178 184 193 189 202 213 220 229 229 245 253 266 278 239 253 267 280 288 296 301 310 311 312 315 314
138 130 134 150 150 148 153 155 151 148 150 154 152 146 144 142 161 177 203 224 250 243 266 270 270 285 271 256 268 282 293 300 304 304 304 306 308 310
117 117 116 125 132 137 135 132 136 140 138 141 145 148 153 161 187 238 264 263 252 258 271 307 316 309 304 300 292 272 281 292 292 294 294 296 301 305
113 111 114 117 129 131 121 123 124 126 129 144 152 144 130 127 191 255 248 234 259 329 328 325 329 322 317 314 306 297 301 300 304 301 303 306 308 312
103 110 111 117 120 110 117 129 127 127 137 137 123 98 91 100 133 159 207 235 289 298 299 304 308 307 315 318 310 299 301 309 305 308 310 313 317 320
101 122 125 131 137 140 134 131 127 123 127 129 126 133 11 335 336 331 301 283 273 278 282 285 295 304 317 317 309 307 312 312 315 318 318 318 320 323
123 126 122 119 113 105 102 102 108 109 101 88 42 9 341 336 333 328 327 324 307 291 293 302 307 310 308 309 309 316 314 319 321 320 321 321 318 325
114 105 103 99 92 91 83 75 53 41 21 1 350 329 318 317 319 319 318 318 309 300 300 302 313 320 323 324 317 326 324 321 318 317 321 320 319 323
113 105 102 89 69 42 37 29 23 9 345 340 337 331 317 309 310 314 314 312 307 300 300 306 314 321 324 319 316 316 314 312 318 319 321 318 316 318
112 105 69 30 8 4 354 353 354 350 347 333 329 328 317 307 307 310 310 309 305 307 309 312 320 322 314 308 301 307 313 321 319 319 318 320 323 323
42 9 354 341 331 324 328 335 339 342 336 333 327 321 318 314 308 308 307 302 301 308 311 316 319 316 317 320 320 321 324 327 324 323 326 322 316 308
294 303 310 313 317 320 317 315 322 326 328 324 312 309 309 303 302 304 301 292 298 304 309 315 322 326 328 327 325 324 327 331 334 334 334 332 321 306